SCP
0 0 0 0 0 0 0 0 0 0 0 0 0 0 0 0 0 0 0 0 0 0 0 0 0 0 0 0 0 0 0 0 0 0 0 0 0 0 0 0 0 0 0 0 0 0 0 0 0 0 0 0 0 0
0 0 0 0 0 0 0 0 0 0 0 0 0 0 0 0 0 0 0 0 0 0 0 0 0 0 0 0 0 0 0 0 0 0 0 0 0 0 0 0 0 0 0 0 0 0 -0 0 0 0 0 0 0 0
0 0 0 0 0 0 0 0 0 0 0 0 0 0 0 0 0 0 0 0 0 0 0 0 0 0 0 -0 0 0 0 0 0 0 0 0 0 0 0 0 0 0 0 0 0 0 0 0 0 0 0 0 -0 0
0 0 0 0 0 0 0 0 0 0 0 0 0 0 0 0 0 0 0 0 0 0 0 0 0 0 0 0 0 0 0 0 0 0 0 0 0 0 0 0 0 0 0 0 0 0 0 0 0 -0 0 0 0 0
0 0 0 0 0 0 0 0 0 0 0 0 0 0 0 0 0 0 0 0 0 0 0 0 0 0 0 0 0 0 0 0 0 0 0 0 0 0 0 0 0 -0 0 0 0 0 0 0 0 0 0 0 0 0
0 0 0 0 0 0 0 0 0 0 0 0 0 0 0 0 0 0 0 0 0 0 0 0 0 0 0 0 0 0 0 0 0 0 0 0 -0 0 0 0 -0 -0 -0 0 0 0 0 0 0 0 0 0 0 0
0 0 0 0 0 0 0 0 0 0 0 0 0 0 0 0 0 0 0 0 0 0 0 0 0 0 0 0 0 0 0 0 0 0 0 0 0 0 0 0 -0 -0 -0 0 0 0 0 -0 0 -0 0 0 0 0
0 0 0 0 0 0 0 0 0 0 0 0 0 0 0 0 0 0 0 0 0 0 0 0 0 0 0 0 0 0 0 0 0 0 0 0 0 0 0 0 0 0 0 0 0 0 0 0 0 0 0 0 0 0
-0 0 0 0 0 0 0 0 0 0 0 0 0 0 0 0 0 0 0 0 0 0 0 0 0 0 0 0 0 0 0 0 0 0 0 0 0 0 0 0 0 -0 0 0 0 0 0 0 0 0 0 0 0 0
-0 -0 0 0 0 0 0 0 0 0 0 0 0 0 0 0 0 0 0 0 0 0 0 0 0 0 0 0 0 0 0 0 0 0 0 0 0 0 -0 0 0 0 0 0 0 0 0 0 0 0 0 0 0 0
0 -0 0 0 0 0 0 0 0 0 0 0 0 0 0 0 0 0 0 0 0 0 0 0 0 0 0 0 0 0 0 0 0 0 0 0 0 0 0 0 0 0 0 0 0 0 0 0 0 0 0 0 0 0
-0 0 0 0 0 0 0 0 0 0 0 0 0 0 0 0 0 0 0 0 0 0 0 0 0 0 0 0 0 0 0 0 0 0 0 0 0 0 0 0 0 0 0 0 0 0 0 0 0 0 0 0 0 0
0 0 0 0 0 0 0 0 0 0 0 0 0 0 0 0 0 0 0 0 0 0 0 0 0 0 0 0 0 0 0 0 0 0 0 0 0 0 0 0 0 0 0 0 0 0 0 0 0 0 0 0 0 0
0 0 0 0 0 0 0 0 0 0 0 0 0 0 0 0 0 0 0 0 0 0 0 0 0 0 0 0 0 0 0 0 0 0 0 0 0 0 0 0 0 0 0 0 0 0 0 0 0 0 0 0 0 0
-0 0 0 0 0 0 0 0 0 0 0 0 0 0 0 0 0 0 0 0 0 0 0 0 0 0 0 0 0 0 0 0 0 0 0 0 0 0 0 0 0 0 0 0 0 0 0 0 0 0 0 0 0 0
0 0 0 0 0 0 0 0 0 0 0 0 0 0 0 0 0 0 0 0 0 0 0 0 0 0 0 0 0 0 0 0 0 0 0 0 0 0 0 0 0 0 0 0 0 0 0 0 0 0 0 0 0 0
0 0 0 0 0 0 0 0 0 0 0 0 0 0 0 0 0 0 0 0 0 0 0 0 0 0 0 0 0 0 0 0 0 0 0 0 0 0 0 0 0 0 0 0 0 0 0 0 0 0 0 0 0 0
0 0 0 0 0 0 0 0 0 0 0 0 0 0 0 0 0 0 0 0 0 0 0 0 0 0 0 0 0 0 0 0 0 0 0 0 0 0 0 0 0 0 0 0 0 0 0 0 0 0 0 0 0 0
0 0 0 0 0 0 0 0 0 0 0 0 0 0 0 0 0 0 0 0 0 0 0 0 0 0 0 0 0 0 0 0 0 0 0 0 0 0 0 0 0 0 0 0 0 0 0 0 0 0 0 0 0 -0
-0 -0 0 0 0 0 0 0 0 0 0 0 0 0 0 0 0 0 0 0 0 0 0 0 0 0 0 0 0 0 0 0 0 0 0 0 0 0 0 0 0 0 0 0 0 0 0 0 0 0 0 0 0 0
0 0 0 0 0 0 0 0 0 0 0 0 0 0 0 0 0 0 0 0 0 0 0 0 0 0 0 0 0 0 0 0 0 0 0 0 0 0 0 0 0 0 0 0 0 0 0 0 0 -0 0 0 0 0
0 0 0 0 0 0 0 0 -0 -0 0 0 0 0 0 0 0 0 0 0 0 0 0 0 0 0 0 0 0 0 0 0 0 0 0 0 0 0 0 0 0 0 0 0 0 0 0 0 0 0 0 0 0 0
0 0 0 0 0 0 0 0 0 0 0 0 0 0 0 0 0 0 0 0 0 0 0 0 0 0 0 0 0 0 0 0 0 0 0 0 0 0 0 0 0 0 0 0 0 0 0 0 0 0 0 0 0 0
0 0 0 0 -0 0 0 0 0 0 0 0 0 0 0 0 0 0 0 0 0 0 0 0 0 0 0 0 0 0 0 0 0 0 0 0 0 0 0 0 0 0 0 0 0 0 0 0 0 0 0 0 0 0
-0 0 -0 0 0 0 0 0 0 0 0 0 0 0 0 0 0 0 0 0 0 0 0 0 0 0 0 0 0 0 0 0 0 0 0 0 0 0 0 0 0 0 0 0 0 0 0 0 0 0 0 0 0 0
0 0 0 0 0 0 0 0 0 0 0 0 0 0 0 0 0 0 0 0 0 0 0 0 0 0 0 0 0 0 0 0 0 0 0 0 0 0 0 0 0 0 0 0 0 0 0 0 0 0 0 0 0 0
0 0 0 0 0 0 0 0 0 0 0 0 0 0 0 0 0 0 0 0 0 0 0 0 0 0 0 0 0 0 0 0 0 0 0 0 0 0 0 0 0 0 0 -0 0 0 0 0 0 0 0 0 0 0
0 0 0 0 -0 -0 -0 0 0 0 0 0 0 0 0 0 0 0 0 0 0 0 0 0 0 0 0 0 0 0 0 0 0 0 0 0 0 0 0 0 0 0 0 0 0 0 0 0 0 0 0 0 0 0
0 0 0 -0 -0 0 0 0 0 0 0 0 0 0 0 0 0 0 0 0 0 0 0 0 0 0 0 0 0 0 0 0 0 0 0 0 0 0 0 0 0 0 0 0 0 0 0 0 0 0 0 0 0 0
0 0 0 0 0 0 0 -0 -0 -0 0 0 0 0 0 0 0 0 0 0 0 0 0 0 0 0 0 0 -0 -0 -0 -0 -0 -0 -0 -0 -0 0 0 0 0 0 0 0 0 0 0 0 0 0 0 0 0 0
-0 0 0 -0 0 0 -0 0 0 -0 0 0 0 0 0 0 0 0 0 0 0 0 0 0 0 0 -0 -0 -0 -0 0 0 0 0 0 0 0 0 0 0 0 0 0 0 0 0 0 0 0 0 0 0 0 0
-0 -0 -0 0 0 -0 -0 -0 -0 -0 0 0 0 0 0 0 -0 -0 -0 -0 -0 -0 -0 0 0 -0 0 0 0 0 0 0 0 0 0 0 0 0 0 0 0 0 0 0 0 0 0 0 0 0 0 0 0 0
0 -0 0 0 0 0 0 -0 -0 -0 0 0 0 0 -0 -0 0 -0 0 -0 -0 0 0 0 0 0 0 0 0 0 0 0 0 0 0 0 0 0 0 0 0 0 0 0 0 0 0 0 0 0 0 0 0 0
Wind_Speed_500mb
15 16 19 25 23 33 33 30 31 33 34 35 37 39 37 39 39 33 31 23 16 8 28 27 26 14 18 18 5 17 7 12 10 9 3 6 6 3 6 6 3 7 10 3 8 6 6 11 9 8 20 28 44 26
10 12 18 22 23 27 30 32 31 29 27 28 34 35 36 36 38 33 26 20 11 12 14 14 22 26 20 7 15 13 6 1 2 4 4 2 6 6 5 4 9 6 4 7 9 8 13 2 19 40 37 40 33 37
11 11 16 24 24 29 33 36 35 31 27 25 28 31 34 37 38 34 30 16 11 7 26 28 29 11 14 15 16 6 2 5 4 12 2 3 3 3 4 4 8 5 13 1 1 5 4 35 52 48 42 39 30 36
20 14 15 20 22 30 29 35 34 30 27 25 22 26 33 36 40 38 33 22 12 1 5 11 12 10 15 14 17 17 13 5 9 11 11 5 5 5 3 2 4 7 10 8 7 14 30 30 32 44 40 30 21 18
21 19 17 19 24 26 28 31 31 30 27 23 19 22 32 38 41 44 31 23 18 4 5 21 19 19 15 25 22 15 19 12 12 3 4 4 9 7 3 3 6 3 3 0 4 8 17 24 35 35 36 26 15 9
15 17 19 21 21 23 28 28 32 31 27 23 19 22 32 37 39 41 15 22 23 12 5 6 10 20 11 26 20 15 19 14 11 5 8 6 12 6 5 5 13 15 20 41 18 8 7 18 26 22 17 16 14 12
15 12 15 17 19 22 28 29 32 30 28 23 24 32 36 38 51 22 9 17 34 22 4 10 11 9 27 20 17 19 17 15 10 6 8 7 13 19 7 7 16 29 25 21 23 25 13 18 15 11 12 13 7 8
14 8 13 18 20 23 26 30 31 31 26 28 27 32 40 40 49 15 9 23 37 15 5 3 9 3 18 12 11 19 12 14 10 9 6 4 6 3 2 5 28 22 24 30 28 24 23 20 8 9 17 16 18 35
14 11 11 16 25 26 27 34 34 35 29 27 26 32 38 32 22 6 13 20 24 3 3 4 3 5 9 8 13 12 14 4 8 7 7 7 4 4 12 34 39 32 18 24 33 33 34 43 46 47 47 46 50 46
17 16 14 15 25 30 29 34 36 35 35 39 47 11 10 29 21 19 10 10 13 6 7 8 9 5 8 11 5 1 4 4 3 8 3 5 7 3 32 45 33 23 23 31 43 48 49 51 52 47 45 42 38 32
24 23 21 20 27 34 34 42 43 45 47 33 7 5 30 29 20 6 7 7 10 5 12 12 17 7 7 4 4 7 1 1 3 8 7 2 7 8 40 41 42 39 32 34 42 43 44 45 41 35 33 29 23 19
27 30 26 26 29 36 39 47 45 53 15 11 18 24 26 10 6 5 6 5 8 9 11 16 14 13 1 3 9 10 3 5 4 8 5 5 5 31 48 46 43 39 39 39 34 35 34 31 25 24 22 19 20 19
29 33 35 33 35 40 42 47 51 31 18 25 10 9 7 6 1 8 10 6 5 8 14 18 7 9 7 5 10 6 3 6 7 4 2 4 28 38 40 46 48 44 39 41 38 29 22 22 15 13 14 17 19 21
32 35 39 37 38 41 48 50 34 16 8 6 7 4 7 8 9 9 9 9 19 5 25 28 18 7 4 5 7 7 8 3 3 3 3 7 43 40 41 43 43 43 40 38 39 31 20 12 11 11 15 18 16 15
36 36 38 40 41 45 51 46 19 14 5 0 3 7 10 19 15 18 27 24 14 12 28 19 9 5 4 5 1 2 3 5 5 4 7 35 41 46 42 38 34 32 30 27 21 15 11 8 11 16 18 18 16 17
43 39 36 44 47 49 55 35 15 5 7 3 5 7 21 4 14 10 17 14 5 39 32 14 6 5 1 5 4 8 4 1 5 8 46 52 49 40 39 36 33 30 24 21 14 10 9 11 16 16 10 10 16 19
33 26 46 48 51 49 45 24 7 6 5 7 5 12 27 10 13 12 2 7 15 9 5 7 5 10 3 3 4 4 2 5 32 43 43 42 44 41 35 32 27 22 17 11 10 10 16 17 13 15 13 13 17 22
35 49 49 52 53 49 32 10 4 5 5 7 5 22 27 15 21 14 13 7 10 8 15 6 4 1 4 3 2 3 15 28 30 37 37 30 31 32 26 23 15 9 5 8 8 17 17 11 8 10 11 9 13 15
51 52 50 53 51 28 7 11 4 4 5 11 13 22 17 16 16 17 19 20 20 18 14 4 4 3 4 5 14 20 25 26 33 26 28 24 23 24 22 18 16 7 2 9 8 11 8 7 12 7 8 7 8 16
52 53 60 55 29 4 5 3 4 4 6 13 16 17 12 8 23 12 14 16 16 19 5 3 4 10 17 29 25 17 24 25 30 29 23 20 21 20 18 13 10 5 7 7 5 4 10 12 10 9 6 8 14 15
65 54 48 25 7 8 5 2 1 8 10 9 14 11 9 7 11 24 18 19 4 6 6 12 30 27 28 26 28 21 22 25 24 20 19 27 27 22 16 14 13 15 5 6 7 9 7 10 12 6 15 14 13 14
56 55 23 16 11 7 7 7 3 1 5 11 10 7 4 3 3 13 7 2 3 4 14 22 24 27 27 27 28 21 20 16 14 15 20 20 29 26 23 18 20 21 13 11 14 12 10 15 18 13 9 20 14 19
32 8 2 5 7 6 5 6 4 3 1 8 10 7 2 2 3 2 4 7 8 13 20 23 21 18 27 27 24 21 15 14 18 19 22 19 23 19 19 21 22 21 18 17 16 13 14 21 20 19 14 18 18 21
9 4 2 2 6 4 2 2 2 5 1 3 3 6 6 4 4 4 4 6 12 30 29 25 27 27 27 25 20 15 15 19 21 24 21 21 20 18 19 23 25 24 21 20 19 14 21 26 30 23 22 21 18 23
4 6 4 5 6 7 4 4 6 5 4 5 3 6 7 6 1 3 4 7 21 31 31 29 28 25 25 22 19 19 20 20 20 18 16 15 16 19 19 19 22 23 23 25 31 26 29 27 32 27 25 24 22 21
4 7 13 15 13 8 9 5 11 11 5 6 11 8 10 6 5 8 7 11 15 36 36 36 30 27 21 21 27 26 22 21 20 18 15 17 20 21 20 19 16 11 11 19 27 29 32 33 34 34 32 27 29 24
8 11 17 16 11 15 7 12 12 8 8 8 6 8 7 6 8 4 8 12 19 21 21 28 33 29 29 27 26 23 21 20 22 25 26 25 23 22 22 21 20 17 16 21 18 30 35 29 38 36 30 31 29 27
17 11 13 19 13 19 4 5 6 10 5 8 6 10 7 5 8 10 16 20 19 20 20 19 21 21 22 20 18 17 18 19 18 18 19 21 21 21 21 25 24 21 16 18 26 32 31 31 31 39 35 33 32 30
13 12 14 19 26 14 27 15 12 9 13 8 1 2 4 3 14 24 24 17 16 24 22 19 17 17 17 17 16 16 18 17 17 15 15 12 12 10 11 16 24 27 24 22 23 27 32 29 34 35 37 35 38 33
11 16 7 8 10 10 13 14 14 16 11 19 14 26 28 25 21 19 19 15 16 17 16 13 11 13 12 11 15 18 17 17 18 18 17 15 15 14 17 16 21 23 26 24 16 21 25 31 33 30 32 37 38 36
7 18 5 10 8 11 15 18 15 15 19 20 28 29 19 18 19 14 15 16 15 15 16 18 20 18 16 19 16 15 16 16 15 16 17 15 15 8 7 9 23 28 27 23 19 18 24 29 35 35 33 34 37 39
17 19 15 8 7 15 16 13 10 17 22 28 22 23 17 13 10 14 14 15 14 15 18 21 21 22 19 11 13 14 14 13 13 13 14 15 17 15 13 11 16 27 30 24 20 21 30 30 29 32 32 37 36 34
14 18 19 4 7 16 23 18 15 13 14 25 16 27 27 20 9 12 13 11 16 21 17 16 16 16 16 16 16 14 14 15 14 14 12 15 13 15 10 7 15 22 30 32 25 18 19 28 33 30 26 26 30 29
Wind_Direction_500mb
114 122 142 143 145 157 169 169 175 181 186 191 198 203 203 201 203 200 185 190 205 255 272 280 298 323 344 21 61 322 15 0 13 47 78 303 24 350 16 326 276 152 144 191 151 193 248 275 310 179 151 132 113 105
129 135 164 162 166 171 172 176 174 175 174 179 190 194 193 193 196 194 172 179 203 254 270 285 252 256 265 300 291 344 100 284 93 71 15 38 14 349 51 298 318 354 105 169 194 207 232 60 97 121 140 131 144 137
154 124 137 157 165 172 175 178 178 174 173 181 186 188 187 189 186 181 161 166 192 279 299 271 252 240 304 211 196 280 138 31 94 17 55 61 308 291 69 311 294 297 14 26 71 241 92 98 107 103 103 109 135 138
148 145 142 160 166 173 174 177 172 174 177 176 182 185 182 181 179 172 163 161 152 33 276 290 333 238 194 178 191 232 288 269 324 295 220 191 210 215 103 33 254 270 326 326 15 17 64 52 129 122 115 125 130 135
126 130 136 160 171 168 173 173 174 174 176 173 175 175 175 176 174 173 167 156 155 114 283 290 310 187 202 220 205 213 241 256 317 305 186 219 124 129 31 235 242 236 341 301 153 310 70 27 55 71 82 79 76 83
129 141 150 158 163 167 173 169 174 172 172 170 169 163 160 162 164 164 190 187 186 182 293 309 300 245 196 186 220 252 231 245 246 298 261 186 179 136 128 242 249 243 164 124 163 125 49 356 345 35 40 38 26 27
122 128 154 149 154 149 161 165 165 160 162 156 163 162 156 157 158 159 181 166 185 182 238 302 286 217 185 203 231 237 231 236 232 233 238 210 193 186 145 199 192 184 182 146 170 129 136 188 247 329 352 342 319 335
125 125 147 160 158 152 157 159 157 160 155 161 167 162 157 157 164 145 110 171 168 181 241 252 269 157 193 188 201 230 200 220 237 221 246 233 208 221 226 222 167 155 123 98 95 111 110 104 93 81 114 98 92 84
161 152 138 149 165 159 155 159 157 157 152 152 147 144 161 173 180 162 116 161 177 177 280 289 232 233 181 211 214 190 208 145 221 190 236 138 303 244 204 161 161 153 126 111 108 100 99 98 97 95 96 92 93 86
188 170 162 152 154 158 157 152 150 148 142 136 126 115 138 164 150 133 126 165 197 223 233 245 275 279 322 185 213 5 149 194 41 251 156 117 244 338 192 162 159 175 152 142 109 103 103 100 98 93 90 88 85 79
202 191 173 156 154 158 153 150 152 150 151 147 136 117 132 141 138 159 160 166 187 244 221 232 228 232 357 125 188 36 208 3 74 271 130 336 3 30 137 138 135 133 132 119 115 110 112 112 108 104 90 79 67 51
198 196 180 160 156 159 155 156 155 153 146 127 103 121 127 164 169 162 195 231 175 222 205 187 197 207 283 65 81 1 60 21 252 309 76 79 273 108 110 113 119 120 117 112 109 104 101 96 90 83 71 48 25 8
194 186 186 166 159 163 159 160 160 168 139 125 112 143 152 154 105 197 192 233 223 209 198 168 167 173 161 112 77 62 69 248 321 49 178 148 149 133 135 131 120 117 116 113 111 105 96 92 72 42 30 8 356 3
184 179 180 172 158 159 162 167 164 141 112 114 153 102 174 206 221 202 198 202 221 250 163 173 161 173 103 88 137 124 233 81 322 203 117 192 151 141 128 124 121 121 126 121 118 116 108 94 75 35 22 42 39 33
167 167 168 174 160 164 167 162 143 95 76 147 199 198 214 237 257 248 241 266 251 316 174 124 74 114 43 99 139 78 116 240 204 175 170 155 144 137 131 130 128 128 125 120 120 115 111 69 41 53 42 39 33 19
157 150 171 169 165 163 167 165 157 30 1 302 253 320 339 248 298 295 216 260 289 118 109 89 89 66 68 160 135 221 177 177 218 129 131 132 128 131 131 132 130 129 130 127 117 92 64 76 64 58 48 55 40 34
152 156 165 166 162 161 161 157 153 343 330 312 310 332 347 296 288 317 274 167 91 104 94 101 108 205 180 165 198 51 201 204 129 133 132 135 137 131 131 125 121 119 112 95 64 77 97 93 74 59 74 91 61 62
137 153 158 160 152 148 149 152 7 334 308 310 3 338 339 338 353 21 28 16 100 99 137 154 357 145 122 68 19 280 118 142 132 133 127 129 133 132 132 125 130 123 103 57 74 118 110 107 94 80 82 108 86 91
142 148 148 146 142 125 118 192 330 343 308 329 10 339 343 359 348 358 42 119 101 116 113 102 81 101 147 140 133 131 138 155 144 138 143 146 141 143 140 145 147 137 31 61 110 123 139 140 122 136 133 119 97 127
130 128 129 135 138 93 112 157 231 291 340 338 345 0 340 345 357 320 52 48 119 123 66 72 167 147 139 136 130 127 162 155 157 150 157 168 168 164 169 179 187 204 153 100 119 151 174 148 136 154 173 159 143 136
127 130 141 142 92 59 94 69 347 1 353 334 343 357 314 3 25 359 329 343 98 105 119 113 113 112 108 141 151 145 141 169 179 180 193 187 183 190 192 191 198 177 221 200 227 186 183 176 157 139 133 143 153 129
138 143 124 74 48 48 23 21 347 0 348 301 302 356 295 62 102 196 266 63 93 89 159 144 143 151 140 141 147 148 152 157 156 167 175 177 185 194 203 213 198 188 208 257 252 226 215 182 181 160 172 167 155 154
139 148 122 152 174 186 193 274 266 206 122 296 334 348 265 206 265 270 206 210 207 167 154 167 172 170 157 149 151 159 171 178 179 188 183 190 190 188 192 195 200 208 223 240 238 229 216 186 182 169 158 162 163 158
206 253 316 223 182 135 248 246 269 289 267 344 337 294 286 248 291 255 237 219 181 175 169 169 164 167 168 171 165 178 179 162 155 155 169 179 194 206 212 219 227 234 238 240 236 224 193 182 176 182 172 182 174 173
254 231 214 271 207 127 191 217 206 220 252 217 231 255 248 200 8 290 245 261 210 191 190 183 178 178 181 185 184 182 187 196 188 189 208 240 240 238 235 250 250 253 252 237 223 205 193 182 181 183 186 183 183 175
222 235 198 197 179 189 182 218 194 203 234 220 222 247 163 168 231 236 216 203 209 206 194 193 188 186 198 208 191 185 197 214 230 239 257 259 241 241 249 249 269 252 232 196 203 199 191 186 185 189 192 191 190 190
236 239 211 209 198 176 232 251 215 171 205 223 220 190 185 226 221 240 160 177 169 168 178 190 195 210 202 183 187 200 218 238 257 269 262 245 239 243 242 243 241 232 222 213 206 194 193 193 197 197 198 200 204 200
240 223 196 196 201 202 129 257 236 200 235 213 219 187 218 217 209 165 158 157 168 163 164 164 169 178 186 198 219 235 261 270 259 253 254 253 252 250 242 231 229 222 212 205 201 196 199 202 200 201 208 208 205 189
232 227 214 201 205 177 193 216 198 210 220 219 157 100 354 1 160 154 159 158 166 162 161 167 176 195 207 221 230 248 266 255 235 242 249 267 264 233 234 228 215 206 204 197 211 208 207 224 207 206 206 201 200 199
235 205 188 196 180 206 221 201 194 201 207 194 151 138 136 139 145 155 157 162 168 185 206 212 201 206 220 241 266 261 251 242 238 244 246 257 251 252 268 226 208 199 197 198 212 219 216 210 203 199 197 199 203 206
202 154 139 211 270 237 184 172 170 161 141 155 164 154 147 143 159 178 188 183 183 188 204 213 212 225 254 277 269 244 244 248 242 232 228 234 228 259 197 193 188 188 187 204 225 213 200 187 191 193 194 197 208 214
199 170 180 218 198 199 173 183 159 163 155 149 153 156 158 150 159 183 195 202 201 207 218 230 237 247 254 267 283 257 245 231 224 230 235 229 216 214 204 193 212 210 202 201 217 198 198 201 202 197 212 222 220 216
170 168 213 150 99 167 205 194 179 174 189 186 180 182 184 184 167 175 176 216 227 221 224 242 253 256 241 264 289 266 230 213 216 231 244 221 223 208 217 252 219 216 210 193 204 212 211 202 203 207 211 219 222 227
Wind_Speed_850mb
15 16 19 25 23 33 33 30 31 33 34 35 37 39 37 39 39 33 31 23 16 8 28 27 26 14 18 18 5 17 7 12 10 9 3 6 6 3 6 6 3 7 10 3 8 6 6 11 9 8 20 28 44 26
10 12 18 22 23 27 30 32 31 29 27 28 34 35 36 36 38 33 26 20 11 12 14 14 22 26 20 7 15 13 6 1 2 4 4 2 6 6 5 4 9 6 4 7 9 8 13 2 19 40 37 40 33 37
11 11 16 24 24 29 33 36 35 31 27 25 28 31 34 37 38 34 30 16 11 7 26 28 29 11 14 15 16 6 2 5 4 12 2 3 3 3 4 4 8 5 13 1 1 5 4 35 52 48 42 39 30 36
20 14 15 20 22 30 29 35 34 30 27 25 22 26 33 36 40 38 33 22 12 1 5 11 12 10 15 14 17 17 13 5 9 11 11 5 5 5 3 2 4 7 10 8 7 14 30 30 32 44 40 30 21 18
21 19 17 19 24 26 28 31 31 30 27 23 19 22 32 38 41 44 31 23 18 4 5 21 19 19 15 25 22 15 19 12 12 3 4 4 9 7 3 3 6 3 3 0 4 8 17 24 35 35 36 26 15 9
15 17 19 21 21 23 28 28 32 31 27 23 19 22 32 37 39 41 15 22 23 12 5 6 10 20 11 26 20 15 19 14 11 5 8 6 12 6 5 5 13 15 20 41 18 8 7 18 26 22 17 16 14 12
15 12 15 17 19 22 28 29 32 30 28 23 24 32 36 38 51 22 9 17 34 22 4 10 11 9 27 20 17 19 17 15 10 6 8 7 13 19 7 7 16 29 25 21 23 25 13 18 15 11 12 13 7 8
14 8 13 18 20 23 26 30 31 31 26 28 27 32 40 40 49 15 9 23 37 15 5 3 9 3 18 12 11 19 12 14 10 9 6 4 6 3 2 5 28 22 24 30 28 24 23 20 8 9 17 16 18 35
14 11 11 16 25 26 27 34 34 35 29 27 26 32 38 32 22 6 13 20 24 3 3 4 3 5 9 8 13 12 14 4 8 7 7 7 4 4 12 34 39 32 18 24 33 33 34 43 46 47 47 46 50 46
17 16 14 15 25 30 29 34 36 35 35 39 47 11 10 29 21 19 10 10 13 6 7 8 9 5 8 11 5 1 4 4 3 8 3 5 7 3 32 45 33 23 23 31 43 48 49 51 52 47 45 42 38 32
24 23 21 20 27 34 34 42 43 45 47 33 7 5 30 29 20 6 7 7 10 5 12 12 17 7 7 4 4 7 1 1 3 8 7 2 7 8 40 41 42 39 32 34 42 43 44 45 41 35 33 29 23 19
27 30 26 26 29 36 39 47 45 53 15 11 18 24 26 10 6 5 6 5 8 9 11 16 14 13 1 3 9 10 3 5 4 8 5 5 5 31 48 46 43 39 39 39 34 35 34 31 25 24 22 19 20 19
29 33 35 33 35 40 42 47 51 31 18 25 10 9 7 6 1 8 10 6 5 8 14 18 7 9 7 5 10 6 3 6 7 4 2 4 28 38 40 46 48 44 39 41 38 29 22 22 15 13 14 17 19 21
32 35 39 37 38 41 48 50 34 16 8 6 7 4 7 8 9 9 9 9 19 5 25 28 18 7 4 5 7 7 8 3 3 3 3 7 43 40 41 43 43 43 40 38 39 31 20 12 11 11 15 18 16 15
36 36 38 40 41 45 51 46 19 14 5 0 3 7 10 19 15 18 27 24 14 12 28 19 9 5 4 5 1 2 3 5 5 4 7 35 41 46 42 38 34 32 30 27 21 15 11 8 11 16 18 18 16 17
43 39 36 44 47 49 55 35 15 5 7 3 5 7 21 4 14 10 17 14 5 39 32 14 6 5 1 5 4 8 4 1 5 8 46 52 49 40 39 36 33 30 24 21 14 10 9 11 16 16 10 10 16 19
33 26 46 48 51 49 45 24 7 6 5 7 5 12 27 10 13 12 2 7 15 9 5 7 5 10 3 3 4 4 2 5 32 43 43 42 44 41 35 32 27 22 17 11 10 10 16 17 13 15 13 13 17 22
35 49 49 52 53 49 32 10 4 5 5 7 5 22 27 15 21 14 13 7 10 8 15 6 4 1 4 3 2 3 15 28 30 37 37 30 31 32 26 23 15 9 5 8 8 17 17 11 8 10 11 9 13 15
51 52 50 53 51 28 7 11 4 4 5 11 13 22 17 16 16 17 19 20 20 18 14 4 4 3 4 5 14 20 25 26 33 26 28 24 23 24 22 18 16 7 2 9 8 11 8 7 12 7 8 7 8 16
52 53 60 55 29 4 5 3 4 4 6 13 16 17 12 8 23 12 14 16 16 19 5 3 4 10 17 29 25 17 24 25 30 29 23 20 21 20 18 13 10 5 7 7 5 4 10 12 10 9 6 8 14 15
65 54 48 25 7 8 5 2 1 8 10 9 14 11 9 7 11 24 18 19 4 6 6 12 30 27 28 26 28 21 22 25 24 20 19 27 27 22 16 14 13 15 5 6 7 9 7 10 12 6 15 14 13 14
56 55 23 16 11 7 7 7 3 1 5 11 10 7 4 3 3 13 7 2 3 4 14 22 24 27 27 27 28 21 20 16 14 15 20 20 29 26 23 18 20 21 13 11 14 12 10 15 18 13 9 20 14 19
32 8 2 5 7 6 5 6 4 3 1 8 10 7 2 2 3 2 4 7 8 13 20 23 21 18 27 27 24 21 15 14 18 19 22 19 23 19 19 21 22 21 18 17 16 13 14 21 20 19 14 18 18 21
9 4 2 2 6 4 2 2 2 5 1 3 3 6 6 4 4 4 4 6 12 30 29 25 27 27 27 25 20 15 15 19 21 24 21 21 20 18 19 23 25 24 21 20 19 14 21 26 30 23 22 21 18 23
4 6 4 5 6 7 4 4 6 5 4 5 3 6 7 6 1 3 4 7 21 31 31 29 28 25 25 22 19 19 20 20 20 18 16 15 16 19 19 19 22 23 23 25 31 26 29 27 32 27 25 24 22 21
4 7 13 15 13 8 9 5 11 11 5 6 11 8 10 6 5 8 7 11 15 36 36 36 30 27 21 21 27 26 22 21 20 18 15 17 20 21 20 19 16 11 11 19 27 29 32 33 34 34 32 27 29 24
8 11 17 16 11 15 7 12 12 8 8 8 6 8 7 6 8 4 8 12 19 21 21 28 33 29 29 27 26 23 21 20 22 25 26 25 23 22 22 21 20 17 16 21 18 30 35 29 38 36 30 31 29 27
17 11 13 19 13 19 4 5 6 10 5 8 6 10 7 5 8 10 16 20 19 20 20 19 21 21 22 20 18 17 18 19 18 18 19 21 21 21 21 25 24 21 16 18 26 32 31 31 31 39 35 33 32 30
13 12 14 19 26 14 27 15 12 9 13 8 1 2 4 3 14 24 24 17 16 24 22 19 17 17 17 17 16 16 18 17 17 15 15 12 12 10 11 16 24 27 24 22 23 27 32 29 34 35 37 35 38 33
11 16 7 8 10 10 13 14 14 16 11 19 14 26 28 25 21 19 19 15 16 17 16 13 11 13 12 11 15 18 17 17 18 18 17 15 15 14 17 16 21 23 26 24 16 21 25 31 33 30 32 37 38 36
7 18 5 10 8 11 15 18 15 15 19 20 28 29 19 18 19 14 15 16 15 15 16 18 20 18 16 19 16 15 16 16 15 16 17 15 15 8 7 9 23 28 27 23 19 18 24 29 35 35 33 34 37 39
17 19 15 8 7 15 16 13 10 17 22 28 22 23 17 13 10 14 14 15 14 15 18 21 21 22 19 11 13 14 14 13 13 13 14 15 17 15 13 11 16 27 30 24 20 21 30 30 29 32 32 37 36 34
14 18 19 4 7 16 23 18 15 13 14 25 16 27 27 20 9 12 13 11 16 21 17 16 16 16 16 16 16 14 14 15 14 14 12 15 13 15 10 7 15 22 30 32 25 18 19 28 33 30 26 26 30 29
Wind_Direction_850mb
114 122 142 143 145 157 169 169 175 181 186 191 198 203 203 201 203 200 185 190 205 255 272 280 298 323 344 21 61 322 15 0 13 47 78 303 24 350 16 326 276 152 144 191 151 193 248 275 310 179 151 132 113 105
129 135 164 162 166 171 172 176 174 175 174 179 190 194 193 193 196 194 172 179 203 254 270 285 252 256 265 300 291 344 100 284 93 71 15 38 14 349 51 298 318 354 105 169 194 207 232 60 97 121 140 131 144 137
154 124 137 157 165 172 175 178 178 174 173 181 186 188 187 189 186 181 161 166 192 279 299 271 252 240 304 211 196 280 138 31 94 17 55 61 308 291 69 311 294 297 14 26 71 241 92 98 107 103 103 109 135 138
148 145 142 160 166 173 174 177 172 174 177 176 182 185 182 181 179 172 163 161 152 33 276 290 333 238 194 178 191 232 288 269 324 295 220 191 210 215 103 33 254 270 326 326 15 17 64 52 129 122 115 125 130 135
126 130 136 160 171 168 173 173 174 174 176 173 175 175 175 176 174 173 167 156 155 114 283 290 310 187 202 220 205 213 241 256 317 305 186 219 124 129 31 235 242 236 341 301 153 310 70 27 55 71 82 79 76 83
129 141 150 158 163 167 173 169 174 172 172 170 169 163 160 162 164 164 190 187 186 182 293 309 300 245 196 186 220 252 231 245 246 298 261 186 179 136 128 242 249 243 164 124 163 125 49 356 345 35 40 38 26 27
122 128 154 149 154 149 161 165 165 160 162 156 163 162 156 157 158 159 181 166 185 182 238 302 286 217 185 203 231 237 231 236 232 233 238 210 193 186 145 199 192 184 182 146 170 129 136 188 247 329 352 342 319 335
125 125 147 160 158 152 157 159 157 160 155 161 167 162 157 157 164 145 110 171 168 181 241 252 269 157 193 188 201 230 200 220 237 221 246 233 208 221 226 222 167 155 123 98 95 111 110 104 93 81 114 98 92 84
161 152 138 149 165 159 155 159 157 157 152 152 147 144 161 173 180 162 116 161 177 177 280 289 232 233 181 211 214 190 208 145 221 190 236 138 303 244 204 161 161 153 126 111 108 100 99 98 97 95 96 92 93 86
188 170 162 152 154 158 157 152 150 148 142 136 126 115 138 164 150 133 126 165 197 223 233 245 275 279 322 185 213 5 149 194 41 251 156 117 244 338 192 162 159 175 152 142 109 103 103 100 98 93 90 88 85 79
202 191 173 156 154 158 153 150 152 150 151 147 136 117 132 141 138 159 160 166 187 244 221 232 228 232 357 125 188 36 208 3 74 271 130 336 3 30 137 138 135 133 132 119 115 110 112 112 108 104 90 79 67 51
198 196 180 160 156 159 155 156 155 153 146 127 103 121 127 164 169 162 195 231 175 222 205 187 197 207 283 65 81 1 60 21 252 309 76 79 273 108 110 113 119 120 117 112 109 104 101 96 90 83 71 48 25 8
194 186 186 166 159 163 159 160 160 168 139 125 112 143 152 154 105 197 192 233 223 209 198 168 167 173 161 112 77 62 69 248 321 49 178 148 149 133 135 131 120 117 116 113 111 105 96 92 72 42 30 8 356 3
184 179 180 172 158 159 162 167 164 141 112 114 153 102 174 206 221 202 198 202 221 250 163 173 161 173 103 88 137 124 233 81 322 203 117 192 151 141 128 124 121 121 126 121 118 116 108 94 75 35 22 42 39 33
167 167 168 174 160 164 167 162 143 95 76 147 199 198 214 237 257 248 241 266 251 316 174 124 74 114 43 99 139 78 116 240 204 175 170 155 144 137 131 130 128 128 125 120 120 115 111 69 41 53 42 39 33 19
157 150 171 169 165 163 167 165 157 30 1 302 253 320 339 248 298 295 216 260 289 118 109 89 89 66 68 160 135 221 177 177 218 129 131 132 128 131 131 132 130 129 130 127 117 92 64 76 64 58 48 55 40 34
152 156 165 166 162 161 161 157 153 343 330 312 310 332 347 296 288 317 274 167 91 104 94 101 108 205 180 165 198 51 201 204 129 133 132 135 137 131 131 125 121 119 112 95 64 77 97 93 74 59 74 91 61 62
137 153 158 160 152 148 149 152 7 334 308 310 3 338 339 338 353 21 28 16 100 99 137 154 357 145 122 68 19 280 118 142 132 133 127 129 133 132 132 125 130 123 103 57 74 118 110 107 94 80 82 108 86 91
142 148 148 146 142 125 118 192 330 343 308 329 10 339 343 359 348 358 42 119 101 116 113 102 81 101 147 140 133 131 138 155 144 138 143 146 141 143 140 145 147 137 31 61 110 123 139 140 122 136 133 119 97 127
130 128 129 135 138 93 112 157 231 291 340 338 345 0 340 345 357 320 52 48 119 123 66 72 167 147 139 136 130 127 162 155 157 150 157 168 168 164 169 179 187 204 153 100 119 151 174 148 136 154 173 159 143 136
127 130 141 142 92 59 94 69 347 1 353 334 343 357 314 3 25 359 329 343 98 105 119 113 113 112 108 141 151 145 141 169 179 180 193 187 183 190 192 191 198 177 221 200 227 186 183 176 157 139 133 143 153 129
138 143 124 74 48 48 23 21 347 0 348 301 302 356 295 62 102 196 266 63 93 89 159 144 143 151 140 141 147 148 152 157 156 167 175 177 185 194 203 213 198 188 208 257 252 226 215 182 181 160 172 167 155 154
139 148 122 152 174 186 193 274 266 206 122 296 334 348 265 206 265 270 206 210 207 167 154 167 172 170 157 149 151 159 171 178 179 188 183 190 190 188 192 195 200 208 223 240 238 229 216 186 182 169 158 162 163 158
206 253 316 223 182 135 248 246 269 289 267 344 337 294 286 248 291 255 237 219 181 175 169 169 164 167 168 171 165 178 179 162 155 155 169 179 194 206 212 219 227 234 238 240 236 224 193 182 176 182 172 182 174 173
254 231 214 271 207 127 191 217 206 220 252 217 231 255 248 200 8 290 245 261 210 191 190 183 178 178 181 185 184 182 187 196 188 189 208 240 240 238 235 250 250 253 252 237 223 205 193 182 181 183 186 183 183 175
222 235 198 197 179 189 182 218 194 203 234 220 222 247 163 168 231 236 216 203 209 206 194 193 188 186 198 208 191 185 197 214 230 239 257 259 241 241 249 249 269 252 232 196 203 199 191 186 185 189 192 191 190 190
236 239 211 209 198 176 232 251 215 171 205 223 220 190 185 226 221 240 160 177 169 168 178 190 195 210 202 183 187 200 218 238 257 269 262 245 239 243 242 243 241 232 222 213 206 194 193 193 197 197 198 200 204 200
240 223 196 196 201 202 129 257 236 200 235 213 219 187 218 217 209 165 158 157 168 163 164 164 169 178 186 198 219 235 261 270 259 253 254 253 252 250 242 231 229 222 212 205 201 196 199 202 200 201 208 208 205 189
232 227 214 201 205 177 193 216 198 210 220 219 157 100 354 1 160 154 159 158 166 162 161 167 176 195 207 221 230 248 266 255 235 242 249 267 264 233 234 228 215 206 204 197 211 208 207 224 207 206 206 201 200 199
235 205 188 196 180 206 221 201 194 201 207 194 151 138 136 139 145 155 157 162 168 185 206 212 201 206 220 241 266 261 251 242 238 244 246 257 251 252 268 226 208 199 197 198 212 219 216 210 203 199 197 199 203 206
202 154 139 211 270 237 184 172 170 161 141 155 164 154 147 143 159 178 188 183 183 188 204 213 212 225 254 277 269 244 244 248 242 232 228 234 228 259 197 193 188 188 187 204 225 213 200 187 191 193 194 197 208 214
199 170 180 218 198 199 173 183 159 163 155 149 153 156 158 150 159 183 195 202 201 207 218 230 237 247 254 267 283 257 245 231 224 230 235 229 216 214 204 193 212 210 202 201 217 198 198 201 202 197 212 222 220 216
170 168 213 150 99 167 205 194 179 174 189 186 180 182 184 184 167 175 176 216 227 221 224 242 253 256 241 264 289 266 230 213 216 231 244 221 223 208 217 252 219 216 210 193 204 212 211 202 203 207 211 219 222 227